Time,TemperatureF,DewpointF,PressureIn,WindDirection,WindDirectionDegrees,WindSpeedMPH,WindSpeedGustMPH,Humidity,HourlyPrecipIn,Conditions,Clouds,dailyrainin,SoftwareType,DateUTC
2013-05-22 00:02:00,49.0,46.0,29.74,North,360,4.0,-999.0,91,-99.99,,,-99.99,,2013-05-22 05:02:00,
2013-05-22 00:12:00,49.0,46.0,29.74,NNE,15,3.0,-999.0,91,-99.99,,,-99.99,,2013-05-22 05:12:00,
2013-05-22 00:21:00,49.0,46.0,29.74,NNE,15,3.0,-999.0,91,-99.99,,,-99.99,,2013-05-22 05:21:00,
2013-05-22 00:32:00,49.0,46.0,29.74,North,355,6.0,-999.0,91,-99.99,,,-99.99,,2013-05-22 05:32:00,
2013-05-22 00:42:00,49.0,47.0,29.74,NNE,13,4.0,-999.0,92,-99.99,,,-99.99,,2013-05-22 05:42:00,
2013-05-22 00:51:00,49.0,47.0,29.74,NNE,13,4.0,-999.0,92,-99.99,,,-99.99,,2013-05-22 05:51:00,
2013-05-22 01:01:00,48.0,46.0,29.74,North,5,5.0,-999.0,92,-99.99,,,-99.99,,2013-05-22 06:01:00,
2013-05-22 01:11:00,48.0,46.0,29.74,NNE,12,3.0,-999.0,93,-99.99,,,-99.99,,2013-05-22 06:11:00,
2013-05-22 01:21:00,48.0,46.0,29.74,NNE,12,3.0,-999.0,93,-99.99,,,-99.99,,2013-05-22 06:21:00,
2013-05-22 01:32:00,48.0,46.0,29.74,NNE,17,3.0,-999.0,93,-99.99,,,-99.99,,2013-05-22 06:32:00,
2013-05-22 01:42:00,47.0,45.0,29.73,North,360,5.0,-999.0,93,-99.99,,,-99.99,,2013-05-22 06:42:00,
2013-05-22 01:52:00,47.0,45.0,29.73,North,360,5.0,-999.0,93,-99.99,,,-99.99,,2013-05-22 06:52:00,
2013-05-22 02:01:00,47.0,45.0,29.74,North,360,3.0,-999.0,93,-99.99,,,-99.99,,2013-05-22 07:01:00,
2013-05-22 02:11:00,47.0,45.0,29.74,North,360,3.0,-999.0,93,-99.99,,,-99.99,,2013-05-22 07:11:00,
2013-05-22 02:21:00,47.0,45.0,29.74,North,360,4.0,-999.0,93,-99.99,,,-99.99,,2013-05-22 07:21:00,
2013-05-22 02:31:00,47.0,45.0,29.74,NE,35,4.0,-999.0,93,-99.99,,,-99.99,,2013-05-22 07:31:00,
2013-05-22 02:41:00,47.0,45.0,29.74,NE,35,4.0,-999.0,93,-99.99,,,-99.99,,2013-05-22 07:41:00,
2013-05-22 02:52:00,47.0,45.0,29.74,North,11,5.0,-999.0,93,-99.99,,,-99.99,,2013-05-22 07:52:00,
2013-05-22 03:02:00,47.0,45.0,29.74,NNE,14,5.0,-999.0,92,-99.99,,,-99.99,,2013-05-22 08:02:00,
2013-05-22 03:11:00,47.0,45.0,29.74,NNE,14,5.0,-999.0,92,-99.99,,,-99.99,,2013-05-22 08:11:00,
2013-05-22 03:22:00,47.0,45.0,29.74,North,5,4.0,-999.0,92,-99.99,,,-99.99,,2013-05-22 08:22:00,
2013-05-22 03:31:00,47.0,45.0,29.74,NNE,17,5.0,-999.0,92,-99.99,,,-99.99,,2013-05-22 08:31:00,
2013-05-22 03:42:00,47.0,45.0,29.74,NNE,17,5.0,-999.0,92,-99.99,,,-99.99,,2013-05-22 08:42:00,
2013-05-22 03:52:00,46.0,44.0,29.74,North,360,5.0,-999.0,93,-99.99,,,-99.99,,2013-05-22 08:52:00,
2013-05-22 04:01:00,46.0,44.0,29.74,North,5,5.0,-999.0,93,-99.99,,,-99.99,,2013-05-22 09:01:00,
2013-05-22 04:11:00,46.0,44.0,29.74,North,5,5.0,-999.0,93,-99.99,,,-99.99,,2013-05-22 09:11:00,
2013-05-22 04:21:00,46.0,44.0,29.75,North,360,4.0,-999.0,92,-99.99,,,-99.99,,2013-05-22 09:21:00,
2013-05-22 04:33:00,47.0,45.0,29.75,NNE,22,6.0,-999.0,91,-99.99,,,-99.99,,2013-05-22 09:33:00,
2013-05-22 04:42:00,47.0,45.0,29.75,NNE,22,6.0,-999.0,91,-99.99,,,-99.99,,2013-05-22 09:42:00,
2013-05-22 04:53:00,46.0,44.0,29.75,North,355,5.0,-999.0,91,-99.99,,,-99.99,,2013-05-22 09:53:00,
2013-05-22 05:03:00,46.0,44.0,29.75,North,11,6.0,-999.0,92,-99.99,,,-99.99,,2013-05-22 10:03:00,
2013-05-22 05:12:00,46.0,44.0,29.75,North,11,6.0,-999.0,92,-99.99,,,-99.99,,2013-05-22 10:12:00,
2013-05-22 05:22:00,46.0,44.0,29.75,North,11,6.0,-999.0,92,-99.99,,,-99.99,,2013-05-22 10:22:00,
2013-05-22 05:33:00,46.0,44.0,29.76,NE,36,4.0,-999.0,92,-99.99,,,-99.99,,2013-05-22 10:33:00,
2013-05-22 05:42:00,46.0,44.0,29.76,NE,36,4.0,-999.0,92,-99.99,,,-99.99,,2013-05-22 10:42:00,
2013-05-22 05:52:00,46.0,44.0,29.76,NNE,17,3.0,-999.0,93,-99.99,,,-99.99,,2013-05-22 10:52:00,
2013-05-22 06:02:00,46.0,44.0,29.76,North,9,5.0,-999.0,93,-99.99,,,-99.99,,2013-05-22 11:02:00,
2013-05-22 06:11:00,46.0,44.0,29.76,North,9,5.0,-999.0,93,-99.99,,,-99.99,,2013-05-22 11:11:00,
2013-05-22 06:21:00,46.0,44.0,29.76,North,355,4.0,-999.0,93,-99.99,,,-99.99,,2013-05-22 11:21:00,
2013-05-22 06:32:00,45.0,43.0,29.77,North,5,6.0,-999.0,93,-99.99,,,-99.99,,2013-05-22 11:32:00,
2013-05-22 06:41:00,46.0,44.0,29.77,North,360,5.0,-999.0,93,-99.99,,,-99.99,,2013-05-22 11:41:00,
2013-05-22 06:52:00,46.0,44.0,29.77,North,360,5.0,-999.0,93,-99.99,,,-99.99,,2013-05-22 11:52:00,
2013-05-22 07:02:00,46.0,44.0,29.77,North,360,5.0,-999.0,93,-99.99,,,-99.99,,2013-05-22 12:02:00,
2013-05-22 07:12:00,46.0,44.0,29.77,North,360,5.0,-999.0,93,-99.99,,,-99.99,,2013-05-22 12:12:00,
2013-05-22 07:22:00,46.0,44.0,29.77,NNE,13,4.0,-999.0,93,-99.99,,,-99.99,,2013-05-22 12:22:00,
2013-05-22 07:32:00,46.0,44.0,29.76,North,9,6.0,-999.0,93,-99.99,,,-99.99,,2013-05-22 12:32:00,
2013-05-22 07:42:00,46.0,44.0,29.76,North,9,6.0,-999.0,93,-99.99,,,-99.99,,2013-05-22 12:42:00,
2013-05-22 07:52:00,46.0,44.0,29.77,NNE,13,6.0,-999.0,93,-99.99,,,-99.99,,2013-05-22 12:52:00,
2013-05-22 08:01:00,46.0,44.0,29.77,North,9,6.0,-999.0,93,-99.99,,,-99.99,,2013-05-22 13:01:00,
2013-05-22 08:11:00,46.0,44.0,29.77,North,9,6.0,-999.0,93,-99.99,,,-99.99,,2013-05-22 13:11:00,
2013-05-22 08:22:00,46.0,44.0,29.77,North,5,7.0,-999.0,93,-99.99,,,-99.99,,2013-05-22 13:22:00,
2013-05-22 08:32:00,46.0,44.0,29.78,North,360,7.0,-999.0,93,-99.99,,,-99.99,,2013-05-22 13:32:00,
2013-05-22 08:41:00,46.0,44.0,29.78,North,360,7.0,-999.0,93,-99.99,,,-99.99,,2013-05-22 13:41:00,
2013-05-22 08:52:00,46.0,44.0,29.78,NNE,15,7.0,-999.0,93,-99.99,,,-99.99,,2013-05-22 13:52:00,
2013-05-22 09:02:00,47.0,45.0,29.78,North,360,6.0,-999.0,92,-99.99,,,-99.99,,2013-05-22 14:02:00,
2013-05-22 09:11:00,47.0,45.0,29.79,North,360,5.0,-999.0,92,-99.99,,,-99.99,,2013-05-22 14:11:00,
2013-05-22 09:21:00,47.0,45.0,29.79,North,360,5.0,-999.0,92,-99.99,,,-99.99,,2013-05-22 14:21:00,
2013-05-22 09:32:00,47.0,45.0,29.79,North,5,6.0,-999.0,92,-99.99,,,-99.99,,2013-05-22 14:32:00,
2013-05-22 09:42:00,47.0,45.0,29.79,North,5,6.0,-999.0,92,-99.99,,,-99.99,,2013-05-22 14:42:00,
2013-05-22 09:52:00,47.0,45.0,29.79,North,360,5.0,-999.0,91,-99.99,,,-99.99,,2013-05-22 14:52:00,
2013-05-22 10:01:00,47.0,45.0,29.79,North,360,5.0,-999.0,91,-99.99,,,-99.99,,2013-05-22 15:01:00,
2013-05-22 10:11:00,47.0,45.0,29.79,North,360,5.0,-999.0,91,-99.99,,,-99.99,,2013-05-22 15:11:00,
2013-05-22 10:21:00,47.0,45.0,29.79,North,9,6.0,-999.0,91,-99.99,,,-99.99,,2013-05-22 15:21:00,
2013-05-22 10:32:00,47.0,45.0,29.79,North,10,7.0,-999.0,92,-99.99,,,-99.99,,2013-05-22 15:32:00,
2013-05-22 10:42:00,47.0,45.0,29.79,North,10,7.0,-999.0,92,-99.99,,,-99.99,,2013-05-22 15:42:00,
2013-05-22 10:53:00,47.0,45.0,29.79,North,350,5.0,-999.0,92,-99.99,,,-99.99,,2013-05-22 15:53:00,
2013-05-22 11:03:00,48.0,46.0,29.80,North,9,5.0,-999.0,93,-99.99,,,-99.99,,2013-05-22 16:03:00,
2013-05-22 11:12:00,48.0,46.0,29.80,North,9,5.0,-999.0,93,-99.99,,,-99.99,,2013-05-22 16:12:00,
2013-05-22 11:23:00,48.0,46.0,29.80,NNE,29,4.0,-999.0,92,-99.99,,,-99.99,,2013-05-22 16:23:00,
2013-05-22 11:32:00,48.0,46.0,29.80,NNE,17,5.0,-999.0,92,-99.99,,,-99.99,,2013-05-22 16:32:00,
2013-05-22 11:42:00,48.0,46.0,29.80,NNE,17,5.0,-999.0,92,-99.99,,,-99.99,,2013-05-22 16:42:00,
2013-05-22 11:52:00,48.0,45.0,29.81,NNW,347,5.0,-999.0,91,-99.99,,,-99.99,,2013-05-22 16:52:00,
2013-05-22 12:02:00,49.0,46.0,29.81,NNE,25,5.0,-999.0,91,-99.99,,,-99.99,,2013-05-22 17:02:00,
2013-05-22 12:11:00,49.0,46.0,29.81,NNE,25,5.0,-999.0,91,-99.99,,,-99.99,,2013-05-22 17:11:00,
2013-05-22 12:23:00,49.0,46.0,29.81,NNE,25,5.0,-999.0,91,-99.99,,,-99.99,,2013-05-22 17:23:00,
2013-05-22 12:33:00,49.0,46.0,29.82,NNE,15,7.0,-999.0,91,-99.99,,,-99.99,,2013-05-22 17:33:00,
2013-05-22 12:42:00,49.0,46.0,29.82,NNE,15,7.0,-999.0,91,-99.99,,,-99.99,,2013-05-22 17:42:00,
2013-05-22 12:54:00,49.0,46.0,29.83,NNE,32,7.0,-999.0,91,-99.99,,,-99.99,,2013-05-22 17:54:00,
2013-05-22 13:02:00,50.0,47.0,29.83,NE,36,6.0,-999.0,91,-99.99,,,-99.99,,2013-05-22 18:02:00,
2013-05-22 13:14:00,50.0,47.0,29.83,NE,36,6.0,-999.0,91,-99.99,,,-99.99,,2013-05-22 18:14:00,
2013-05-22 13:22:00,49.0,46.0,29.84,NE,39,6.0,-999.0,90,-99.99,,,-99.99,,2013-05-22 18:22:00,
2013-05-22 13:33:00,50.0,47.0,29.84,NE,44,4.0,-999.0,90,-99.99,,,-99.99,,2013-05-22 18:33:00,
2013-05-22 13:42:00,50.0,47.0,29.84,NE,44,4.0,-999.0,90,-99.99,,,-99.99,,2013-05-22 18:42:00,
2013-05-22 13:52:00,50.0,47.0,29.85,NNE,33,6.0,-999.0,91,-99.99,,,-99.99,,2013-05-22 18:52:00,
2013-05-22 14:02:00,50.0,47.0,29.85,NNE,28,5.0,-999.0,91,-99.99,,,-99.99,,2013-05-22 19:02:00,
2013-05-22 14:11:00,50.0,48.0,29.86,NNE,32,6.0,-999.0,92,-99.99,,,-99.99,,2013-05-22 19:11:00,
2013-05-22 14:21:00,50.0,48.0,29.86,NNE,32,6.0,-999.0,92,-99.99,,,-99.99,,2013-05-22 19:21:00,
2013-05-22 14:32:00,51.0,48.0,29.86,NNE,24,6.0,-999.0,91,-99.99,,,-99.99,,2013-05-22 19:32:00,
2013-05-22 14:42:00,51.0,48.0,29.87,NNE,12,6.0,-999.0,90,-99.99,,,-99.99,,2013-05-22 19:42:00,
2013-05-22 14:52:00,51.0,48.0,29.87,NNE,12,6.0,-999.0,90,-99.99,,,-99.99,,2013-05-22 19:52:00,
2013-05-22 15:02:00,51.0,48.0,29.87,NNE,26,6.0,-999.0,90,-99.99,,,-99.99,,2013-05-22 20:02:00,
2013-05-22 15:11:00,51.0,48.0,29.88,North,5,5.0,-999.0,90,-99.99,,,-99.99,,2013-05-22 20:11:00,
2013-05-22 15:21:00,51.0,48.0,29.88,North,5,5.0,-999.0,90,-99.99,,,-99.99,,2013-05-22 20:21:00,
2013-05-22 15:32:00,52.0,49.0,29.88,NE,34,6.0,-999.0,90,-99.99,,,-99.99,,2013-05-22 20:32:00,
2013-05-22 15:42:00,52.0,49.0,29.88,NE,52,6.0,-999.0,90,-99.99,,,-99.99,,2013-05-22 20:42:00,
2013-05-22 15:51:00,52.0,49.0,29.88,NE,52,6.0,-999.0,90,-99.99,,,-99.99,,2013-05-22 20:51:00,
2013-05-22 16:01:00,52.0,49.0,29.88,North,360,6.0,-999.0,89,-99.99,,,-99.99,,2013-05-22 21:01:00,
2013-05-22 16:11:00,53.0,49.0,29.89,North,5,8.0,-999.0,87,-99.99,,,-99.99,,2013-05-22 21:11:00,
2013-05-22 16:21:00,53.0,49.0,29.89,North,5,8.0,-999.0,87,-99.99,,,-99.99,,2013-05-22 21:21:00,
2013-05-22 16:32:00,53.0,49.0,29.89,NE,34,8.0,-999.0,85,-99.99,,,-99.99,,2013-05-22 21:32:00,
2013-05-22 16:42:00,53.0,49.0,29.89,NE,34,8.0,-999.0,85,-99.99,,,-99.99,,2013-05-22 21:42:00,
2013-05-22 16:52:00,54.0,49.0,29.90,NE,45,8.0,-999.0,84,-99.99,,,-99.99,,2013-05-22 21:52:00,
2013-05-22 17:03:00,54.0,49.0,29.90,NNE,30,8.0,-999.0,84,-99.99,,,-99.99,,2013-05-22 22:03:00,
2013-05-22 17:12:00,54.0,49.0,29.90,NNE,30,8.0,-999.0,84,-99.99,,,-99.99,,2013-05-22 22:12:00,
2013-05-22 17:22:00,55.0,50.0,29.91,NE,45,6.0,-999.0,82,-99.99,,,-99.99,,2013-05-22 22:22:00,
2013-05-22 17:33:00,55.0,49.0,29.91,ENE,65,9.0,-999.0,79,-99.99,,,-99.99,,2013-05-22 22:33:00,
2013-05-22 17:42:00,56.0,49.0,29.91,NE,53,8.0,-999.0,78,-99.99,,,-99.99,,2013-05-22 22:42:00,
2013-05-22 17:52:00,56.0,49.0,29.91,NE,53,8.0,-999.0,78,-99.99,,,-99.99,,2013-05-22 22:52:00,
2013-05-22 18:02:00,56.0,49.0,29.92,NE,49,7.0,-999.0,78,-99.99,,,-99.99,,2013-05-22 23:02:00,
2013-05-22 18:12:00,56.0,49.0,29.92,NE,49,7.0,-999.0,78,-99.99,,,-99.99,,2013-05-22 23:12:00,
2013-05-22 18:21:00,56.0,49.0,29.92,NE,42,3.0,-999.0,77,-99.99,,,-99.99,,2013-05-22 23:21:00,
2013-05-22 18:32:00,57.0,50.0,29.93,ENE,69,4.0,-999.0,76,-99.99,,,-99.99,,2013-05-22 23:32:00,
2013-05-22 18:42:00,57.0,50.0,29.93,ENE,69,4.0,-999.0,76,-99.99,,,-99.99,,2013-05-22 23:42:00,
2013-05-22 18:52:00,57.0,50.0,29.93,NE,38,3.0,-999.0,77,-99.99,,,-99.99,,2013-05-22 23:52:00,
2013-05-22 19:01:00,57.0,49.0,29.93,NE,48,1.0,-999.0,75,-99.99,,,-99.99,,2013-05-23 00:01:00,
2013-05-22 19:11:00,57.0,49.0,29.93,NE,48,1.0,-999.0,75,-99.99,,,-99.99,,2013-05-23 00:11:00,
2013-05-22 19:22:00,58.0,50.0,29.93,NE,51,0.0,-999.0,76,-99.99,,,-99.99,,2013-05-23 00:22:00,
2013-05-22 19:31:00,58.0,50.0,29.94,NE,55,0.0,-999.0,76,-99.99,,,-99.99,,2013-05-23 00:31:00,
2013-05-22 19:42:00,58.0,50.0,29.94,NE,55,0.0,-999.0,76,-99.99,,,-99.99,,2013-05-23 00:42:00,
2013-05-22 19:51:00,58.0,51.0,29.94,ENE,65,0.0,-999.0,77,-99.99,,,-99.99,,2013-05-23 00:51:00,
2013-05-22 20:01:00,57.0,50.0,29.95,ENE,67,0.0,-999.0,77,-99.99,,,-99.99,,2013-05-23 01:01:00,
2013-05-22 20:11:00,56.0,49.0,29.95,ENE,69,1.0,-999.0,78,-99.99,,,-99.99,,2013-05-23 01:11:00,
2013-05-22 20:21:00,56.0,49.0,29.95,ENE,69,1.0,-999.0,78,-99.99,,,-99.99,,2013-05-23 01:21:00,
2013-05-22 20:32:00,56.0,50.0,29.96,ENE,70,0.0,-999.0,79,-99.99,,,-99.99,,2013-05-23 01:32:00,
2013-05-22 20:42:00,55.0,48.0,29.96,ENE,71,0.0,-999.0,78,-99.99,,,-99.99,,2013-05-23 01:42:00,
2013-05-22 20:52:00,55.0,48.0,29.96,ENE,71,0.0,-999.0,78,-99.99,,,-99.99,,2013-05-23 01:52:00,
2013-05-22 21:01:00,55.0,49.0,29.97,ENE,71,1.0,-999.0,79,-99.99,,,-99.99,,2013-05-23 02:01:00,
2013-05-22 21:11:00,55.0,49.0,29.97,ENE,71,1.0,-999.0,79,-99.99,,,-99.99,,2013-05-23 02:11:00,
2013-05-22 21:21:00,54.0,48.0,29.98,ENE,71,0.0,-999.0,80,-99.99,,,-99.99,,2013-05-23 02:21:00,
2013-05-22 21:31:00,54.0,48.0,29.99,ENE,71,0.0,-999.0,80,-99.99,,,-99.99,,2013-05-23 02:31:00,
2013-05-22 21:42:00,54.0,48.0,29.99,ENE,71,0.0,-999.0,80,-99.99,,,-99.99,,2013-05-23 02:42:00,
2013-05-22 21:52:00,54.0,48.0,29.99,ENE,71,0.0,-999.0,80,-99.99,,,-99.99,,2013-05-23 02:52:00,
2013-05-22 22:01:00,53.0,47.0,30.01,ENE,71,0.0,-999.0,80,-99.99,,,-99.99,,2013-05-23 03:01:00,
2013-05-22 22:11:00,53.0,47.0,30.01,ENE,71,0.0,-999.0,80,-99.99,,,-99.99,,2013-05-23 03:11:00,
2013-05-22 22:21:00,52.0,45.0,30.01,ENE,71,1.0,-999.0,78,-99.99,,,-99.99,,2013-05-23 03:21:00,
2013-05-22 22:33:00,52.0,45.0,30.02,ENE,71,0.0,-999.0,78,-99.99,,,-99.99,,2013-05-23 03:33:00,
2013-05-22 22:43:00,52.0,45.0,30.02,ENE,71,0.0,-999.0,78,-99.99,,,-99.99,,2013-05-23 03:43:00,
2013-05-22 22:53:00,51.0,44.0,30.03,ENE,71,0.0,-999.0,78,-99.99,,,-99.99,,2013-05-23 03:53:00,
2013-05-22 23:03:00,50.0,44.0,30.03,ENE,71,0.0,-999.0,80,-99.99,,,-99.99,,2013-05-23 04:03:00,
2013-05-22 23:12:00,50.0,44.0,30.03,ENE,71,0.0,-999.0,80,-99.99,,,-99.99,,2013-05-23 04:12:00,
2013-05-22 23:22:00,50.0,44.0,30.03,ENE,71,0.0,-999.0,81,-99.99,,,-99.99,,2013-05-23 04:22:00,
2013-05-22 23:33:00,50.0,44.0,30.03,ENE,71,0.0,-999.0,81,-99.99,,,-99.99,,2013-05-23 04:33:00,
2013-05-22 23:42:00,50.0,44.0,30.03,ENE,71,0.0,-999.0,81,-99.99,,,-99.99,,2013-05-23 04:42:00,
2013-05-22 23:52:00,50.0,44.0,30.03,ENE,71,0.0,-999.0,81,-99.99,,,-99.99,,2013-05-23 04:52:00,